Wind_Speed
33 40 42 38 32 32 39 38 36 37 41 43 46 52 55 43 45 45 37 37 38 34 31 30 29 28 29 28 27 27 26 26 25 19 18 18 23 24 22 20 19 18 17
38 39 41 44 43 38 37 42 43 41 38 41 42 45 51 57 59 54 36 34 36 36 33 33 30 28 29 28 28 27 25 25 26 21 18 20 21 22 19 18 18 18 15
42 41 41 42 44 46 39 39 41 46 42 39 40 44 43 57 44 31 47 48 34 34 32 33 34 31 30 30 30 29 26 25 26 26 20 21 20 20 18 19 15 16 16
39 41 41 39 39 43 41 37 38 39 41 39 35 36 43 42 33 40 21 43 25 26 34 35 37 36 35 30 29 30 28 27 27 28 23 22 21 21 23 17 14 15 14
30 31 30 29 30 35 37 38 38 37 36 36 32 34 35 38 39 30 31 16 12 23 37 37 38 39 39 34 33 31 31 31 32 29 27 24 23 23 22 18 18 18 16
28 30 25 25 26 26 28 31 34 34 33 33 31 33 33 31 28 30 29 25 23 24 28 51 50 46 44 39 36 35 33 32 33 32 30 29 25 27 26 21 22 23 21
29 25 26 25 26 27 28 29 32 32 30 30 29 31 31 30 29 30 31 26 28 23 25 23 32 51 52 48 38 38 39 37 35 34 34 31 29 27 28 27 24 26 29
28 31 28 28 27 28 27 27 27 28 26 24 24 27 27 26 26 26 26 29 32 34 37 35 30 49 48 40 39 39 40 38 39 40 37 33 34 31 33 29 30 30 32
19 24 19 19 26 32 27 21 20 18 20 19 20 22 23 24 24 22 22 26 31 34 35 33 30 27 30 33 38 41 40 39 39 38 39 40 39 37 33 31 28 32 35
18 19 18 21 29 16 18 27 20 19 17 18 20 22 22 23 23 22 22 23 24 27 32 35 36 36 37 37 37 39 40 39 39 38 37 38 39 35 30 31 30 30 32
13 16 21 24 28 32 14 10 21 21 22 21 22 16 18 20 21 20 21 22 24 21 22 24 25 29 34 35 38 40 39 36 37 38 36 35 30 30 30 29 27 29 30
12 17 17 19 25 25 24 14 7 5 26 2 26 13 13 13 14 15 15 17 18 17 17 17 19 22 24 28 35 34 32 29 27 29 29 30 31 31 29 28 26 24 26
11 8 12 15 18 19 19 19 25 22 22 21 15 12 10 6 6 8 10 12 14 14 18 18 18 16 17 14 22 19 23 22 18 19 21 18 17 21 20 18 19 22 22
7 6 10 16 19 15 14 14 11 10 10 12 13 10 7 5 5 4 6 8 12 11 11 13 12 12 12 9 11 12 14 18 15 11 9 15 15 14 16 17 19 22 25
7 6 14 14 17 13 17 13 10 9 8 4 7 6 5 5 5 2 2 2 5 3 4 7 8 8 14 12 10 12 13 13 11 9 10 11 12 14 15 17 18 19 20
5 5 3 7 4 8 11 11 11 9 8 7 7 6 5 5 3 1 1 2 3 3 3 5 7 9 11 12 11 11 12 11 12 13 15 14 14 15 16 18 18 19 20
3 4 6 3 2 2 9 5 10 11 10 8 5 4 3 3 3 2 1 2 2 3 5 5 6 6 8 9 10 10 10 12 14 15 16 16 17 17 18 18 19 20 20
3 4 6 4 3 0 2 2 4 5 9 10 9 7 6 4 3 2 1 1 1 3 5 5 5 8 8 8 10 12 13 12 12 14 15 16 16 17 17 17 18 19 20
12 8 8 6 10 9 2 6 6 6 6 7 10 7 9 5 7 5 4 3 2 3 6 5 7 7 7 10 12 13 14 14 14 15 16 16 16 16 17 18 19 20 20
7 8 8 8 10 12 10 11 7 8 7 9 9 10 10 12 11 7 9 11 10 7 4 4 8 10 11 8 5 8 12 15 15 16 17 18 19 19 20 21 21 22 23
0 5 2 3 5 7 8 9 9 5 5 7 8 11 5 5 4 2 3 1 1 3 5 11 9 11 13 11 11 8 8 12 14 15 16 17 17 19 19 20 20 21 23
6 7 3 3 6 6 7 10 2 2 5 10 12 12 8 9 7 9 6 7 10 12 12 14 15 20 14 18 19 20 17 15 18 17 19 19 16 15 19 20 20 21 22
6 3 3 6 0 3 2 7 7 12 13 15 11 13 14 15 13 15 14 15 14 14 18 22 23 22 20 21 21 26 24 26 26 24 19 23 21 20 19 21 23 24 24
8 5 10 13 15 11 12 12 10 13 16 18 21 23 23 22 23 25 26 25 26 28 31 33 32 30 31 34 36 41 36 33 30 32 34 30 29 26 25 25 23 23 25
13 9 15 18 19 21 21 22 24 27 26 27 28 29 30 27 21 22 26 27 26 30 34 38 43 43 42 41 43 40 35 34 30 33 44 33 35 39 34 31 31 31 33
15 17 18 18 18 18 19 19 20 23 23 25 27 26 27 29 31 28 28 26 24 25 28 31 35 42 44 44 42 43 42 42 47 44 47 49 46 49 50 45 42 40 40
Wind_Direction
278 273 275 280 276 260 259 264 264 260 255 254 251 252 255 250 245 237 233 231 235 235 234 237 240 245 249 248 249 251 250 253 258 254 254 256 265 275 279 280 282 279 281
282 277 269 275 276 271 257 253 256 258 260 258 255 251 247 245 240 228 213 222 225 232 230 235 236 235 243 247 249 249 249 252 260 260 256 255 255 262 266 270 282 283 272
285 284 277 273 269 266 260 255 255 256 257 258 257 257 261 254 258 253 245 217 212 219 230 235 237 236 235 243 248 251 254 257 259 262 260 254 252 256 258 262 269 270 272
295 288 279 272 269 263 255 254 257 255 256 257 261 260 258 273 262 261 292 215 209 239 234 233 236 238 237 232 238 247 248 249 253 259 256 250 253 256 253 259 257 251 258
307 304 287 277 271 264 258 259 257 257 257 256 257 260 263 270 265 286 274 268 248 244 238 234 239 236 236 238 240 239 247 250 251 257 261 260 256 258 261 263 255 254 252
306 305 294 281 268 265 263 260 256 255 256 254 254 258 260 264 262 254 254 244 234 236 253 236 239 250 236 232 238 246 246 247 249 254 256 257 258 262 263 264 262 271 266
311 312 299 284 271 265 262 261 260 258 254 250 250 251 252 257 254 251 247 238 237 228 227 244 248 246 242 239 233 240 244 245 248 252 253 256 257 262 263 265 271 269 271
312 307 297 285 277 272 268 264 260 255 249 245 246 248 248 247 246 248 245 242 235 233 244 246 263 228 223 241 233 241 245 248 247 250 251 254 257 256 260 259 268 275 280
339 339 317 310 302 274 264 260 248 238 238 233 236 242 242 240 238 238 237 238 241 242 245 248 248 227 244 232 237 241 244 247 248 250 251 250 253 253 257 259 262 270 276
315 334 352 0 5 334 271 240 233 231 231 235 236 238 240 233 232 229 226 225 227 231 235 240 240 238 239 239 240 242 246 250 252 254 255 256 253 252 260 261 267 274 280
332 356 6 6 19 37 34 222 235 249 244 243 238 228 228 233 237 233 231 232 235 238 244 243 238 234 234 239 241 245 249 249 252 255 247 250 253 252 254 263 268 269 265
358 14 9 6 10 21 35 36 45 209 231 228 245 229 215 212 219 220 228 231 227 231 229 225 224 224 228 235 240 240 238 238 243 256 259 259 257 251 253 259 256 252 266
42 34 22 21 22 9 10 27 37 44 49 72 76 104 123 153 193 216 217 216 223 233 219 217 212 223 231 227 223 231 229 234 251 258 261 253 248 241 239 245 258 258 266
58 59 44 48 38 23 16 23 31 19 44 63 62 71 67 74 97 202 199 194 211 208 196 193 202 208 193 188 194 198 212 227 231 232 233 236 242 249 250 251 250 255 258
62 71 54 59 65 49 46 44 32 32 41 54 70 84 68 94 89 96 113 88 129 173 157 163 181 187 201 217 232 237 244 243 237 245 250 250 248 250 249 250 250 252 258
99 166 99 35 355 64 53 43 44 46 45 44 48 56 51 42 50 59 117 175 181 192 193 195 197 196 213 223 231 233 237 243 250 254 259 259 257 257 254 256 258 260 260
337 235 202 125 42 316 63 59 41 17 33 48 53 46 39 14 2 356 303 249 242 238 238 248 246 241 251 244 251 257 254 253 252 254 256 258 258 258 261 261 264 265 266
7 341 18 145 259 71 208 304 347 44 42 45 52 53 53 59 43 21 353 312 269 248 241 243 251 261 262 253 251 255 254 253 259 263 262 264 265 265 265 267 268 270 271
61 69 82 54 35 12 263 282 319 345 8 32 42 17 30 23 9 11 17 30 15 297 268 272 264 286 265 260 255 258 265 268 266 264 267 269 269 270 272 271 271 271 271
81 82 71 29 28 359 27 24 43 58 27 333 334 331 340 2 14 34 51 42 33 27 25 332 329 338 324 312 290 275 273 269 272 274 272 272 272 270 269 268 268 270 273
318 138 133 32 35 16 342 357 22 25 36 0 4 340 320 303 327 104 110 146 252 339 340 321 323 329 313 314 305 305 296 284 283 283 291 291 292 295 295 286 290 288 284
260 282 234 256 281 312 289 309 314 283 284 294 294 303 284 290 281 281 277 295 295 289 282 297 283 305 297 288 309 313 293 311 297 297 301 293 285 286 288 289 289 289 288
261 312 295 233 225 248 310 287 209 247 268 272 273 275 271 272 280 277 276 280 278 274 271 274 271 279 276 271 287 302 293 296 305 288 310 308 293 289 281 280 280 282 283
246 244 228 237 263 259 255 268 251 248 262 267 272 275 278 277 275 273 271 264 264 268 270 268 266 270 269 272 273 277 278 274 282 281 285 292 285 277 281 286 284 287 290
266 264 248 260 273 278 270 271 272 273 277 274 272 277 286 292 285 281 280 278 273 266 260 260 266 266 267 265 265 264 273 274 280 277 274 274 277 268 267 272 274 279 286
288 288 293 291 289 292 288 284 277 276 278 278 281 288 294 297 300 299 293 290 288 284 277 271 268 269 272 275 273 270 270 267 265 269 266 270 269 269 276 280 280 280 281
Height
3130 3126 3122 3122 3123 3124 3124 3125 3124 3124 3124 3123 3127 3124 3122 3124 3125 3130 3134 3141 3145 3147 3151 3154 3158 3163 3166 3168 3170 3171 3173 3176 3173 3177 3179 3179 3178 3176 3176 3177 3177 3177 3177
3118 3115 3113 3110 3110 3111 3111 3111 3112 3112 3114 3114 3115 3115 3114 3115 3103 3085 3114 3131 3135 3140 3142 3146 3148 3152 3158 3162 3163 3165 3167 3169 3168 3169 3170 3172 3173 3172 3172 3171 3171 3171 3170
3105 3102 3099 3098 3096 3096 3099 3098 3099 3100 3101 3103 3104 3103 3093 3100 3098 3078 3086 3122 3122 3128 3136 3139 3142 3144 3148 3154 3157 3158 3160 3163 3163 3162 3164 3165 3166 3165 3164 3164 3165 3165 3165
3091 3088 3085 3084 3082 3081 3084 3086 3087 3088 3090 3092 3095 3096 3096 3088 3078 3087 3097 3104 3112 3120 3127 3129 3133 3136 3138 3142 3148 3152 3153 3155 3156 3155 3156 3158 3159 3159 3157 3159 3159 3158 3158
3082 3078 3073 3072 3071 3070 3073 3075 3077 3078 3080 3082 3086 3086 3087 3089 3092 3088 3098 3105 3105 3114 3118 3120 3125 3129 3131 3133 3138 3143 3145 3147 3149 3148 3149 3150 3151 3152 3153 3153 3153 3151 3151
3075 3070 3066 3064 3064 3063 3063 3064 3065 3067 3070 3073 3076 3077 3078 3080 3084 3091 3095 3094 3096 3102 3104 3108 3115 3121 3126 3125 3129 3133 3136 3139 3140 3141 3141 3142 3144 3145 3146 3147 3146 3145 3145
3069 3065 3061 3057 3056 3055 3054 3054 3055 3057 3060 3063 3066 3067 3069 3072 3075 3078 3082 3085 3089 3092 3095 3100 3106 3110 3116 3120 3118 3123 3126 3129 3131 3133 3133 3135 3137 3138 3138 3138 3138 3138 3139
3063 3059 3054 3051 3048 3046 3046 3046 3046 3049 3051 3054 3057 3059 3061 3064 3066 3069 3074 3078 3081 3082 3087 3093 3095 3089 3104 3107 3110 3112 3117 3121 3123 3123 3125 3128 3128 3129 3129 3131 3131 3131 3131
3061 3056 3049 3045 3040 3036 3038 3039 3040 3041 3045 3047 3050 3052 3054 3055 3058 3062 3065 3067 3071 3074 3077 3082 3085 3089 3096 3095 3100 3103 3108 3111 3114 3114 3116 3119 3119 3119 3120 3122 3123 3122 3123
3059 3055 3049 3044 3036 3028 3029 3030 3032 3035 3039 3041 3044 3046 3048 3051 3053 3055 3058 3062 3065 3069 3072 3073 3075 3078 3082 3086 3091 3096 3099 3103 3105 3106 3107 3108 3109 3109 3112 3113 3115 3113 3114
3059 3054 3048 3044 3037 3031 3025 3027 3030 3031 3034 3037 3040 3041 3044 3047 3049 3052 3055 3057 3061 3063 3064 3065 3068 3072 3076 3079 3083 3086 3089 3093 3094 3096 3096 3098 3098 3100 3103 3105 3104 3104 3105
3058 3055 3052 3048 3042 3038 3034 3031 3031 3025 3027 3026 3035 3038 3041 3044 3047 3048 3050 3053 3055 3058 3059 3062 3063 3066 3068 3070 3073 3075 3079 3083 3085 3086 3086 3086 3088 3092 3094 3095 3095 3096 3096
3058 3058 3054 3050 3046 3043 3041 3037 3026 3029 3030 3031 3030 3032 3039 3043 3045 3046 3048 3051 3053 3054 3056 3057 3058 3062 3062 3061 3065 3066 3068 3073 3078 3079 3078 3080 3081 3081 3083 3086 3088 3089 3090
3059 3060 3057 3053 3049 3047 3045 3043 3041 3039 3040 3040 3039 3040 3043 3045 3045 3047 3049 3049 3051 3053 3051 3053 3055 3056 3058 3060 3062 3064 3068 3072 3072 3070 3072 3076 3077 3077 3078 3080 3082 3083 3084
3061 3061 3056 3055 3053 3053 3051 3049 3046 3043 3043 3043 3043 3043 3044 3045 3047 3048 3050 3050 3050 3051 3047 3050 3052 3054 3055 3058 3062 3064 3066 3069 3068 3068 3070 3072 3072 3074 3074 3074 3076 3078 3078
3061 3061 3059 3057 3056 3055 3053 3050 3049 3048 3046 3045 3045 3044 3045 3046 3047 3048 3049 3051 3051 3052 3052 3053 3053 3054 3055 3056 3058 3060 3062 3064 3064 3064 3067 3068 3069 3069 3067 3068 3070 3071 3072
3062 3061 3060 3058 3058 3056 3053 3053 3052 3050 3048 3047 3047 3046 3047 3047 3048 3048 3048 3049 3050 3050 3050 3051 3051 3051 3052 3053 3056 3057 3059 3060 3060 3061 3062 3063 3062 3062 3063 3063 3063 3064 3065
3062 3061 3061 3059 3059 3058 3056 3054 3052 3052 3051 3049 3049 3048 3049 3049 3049 3049 3049 3050 3049 3049 3049 3049 3049 3050 3051 3051 3052 3054 3055 3055 3056 3057 3056 3057 3057 3056 3056 3056 3057 3057 3059
3060 3060 3060 3059 3057 3058 3058 3057 3055 3053 3051 3050 3050 3049 3050 3050 3050 3049 3049 3049 3049 3049 3049 3049 3049 3050 3050 3050 3051 3050 3050 3051 3051 3051 3050 3050 3050 3052 3051 3051 3051 3051 3052
3062 3062 3062 3060 3058 3057 3057 3055 3054 3054 3054 3052 3051 3050 3050 3050 3049 3048 3048 3049 3049 3049 3049 3048 3047 3047 3046 3046 3047 3047 3047 3046 3046 3045 3045 3045 3045 3045 3045 3045 3045 3045 3046
3062 3062 3062 3061 3059 3059 3059 3058 3056 3055 3054 3053 3052 3051 3050 3047 3046 3046 3046 3046 3045 3045 3045 3046 3045 3045 3044 3042 3041 3040 3040 3039 3038 3038 3038 3038 3037 3037 3037 3037 3037 3036 3036
3061 3061 3061 3061 3060 3059 3058 3058 3057 3055 3053 3052 3052 3050 3049 3048 3048 3047 3046 3045 3044 3043 3043 3043 3040 3039 3040 3036 3037 3037 3035 3035 3035 3034 3035 3033 3032 3031 3030 3030 3030 3029 3028
3059 3059 3059 3057 3057 3055 3055 3053 3053 3052 3050 3049 3047 3046 3044 3044 3046 3045 3045 3043 3043 3042 3040 3039 3036 3036 3034 3033 3030 3030 3031 3030 3032 3030 3029 3029 3028 3027 3026 3023 3023 3022 3021
3055 3055 3054 3052 3052 3052 3052 3051 3051 3049 3047 3045 3043 3041 3040 3041 3040 3037 3038 3039 3038 3036 3033 3030 3031 3029 3028 3027 3025 3025 3025 3024 3024 3023 3020 3020 3021 3021 3019 3016 3016 3015 3014
3049 3049 3049 3049 3048 3049 3049 3048 3046 3043 3042 3039 3036 3035 3032 3031 3032 3031 3028 3026 3026 3024 3023 3021 3016 3016 3016 3016 3015 3014 3013 3014 3011 3011 3011 3010 3009 3009 3006 3006 3006 3006 3006
3046 3045 3045 3044 3044 3043 3042 3041 3039 3036 3035 3033 3030 3029 3026 3024 3020 3019 3016 3015 3015 3013 3011 3009 3006 3002 3000 2999 3000 3000 3001 3001 2999 2998 2997 2996 2996 2996 2995 2993 2994 2994 2994